When you browse on this site, cookies collect data to enhance your experience and personalize the content and advertising you see.
Visit our Privacy Policy to learn more. By continuing to use the site, you agree to this use of cookies and data.

Hourly Weather Emona

Today, 6 July, Monday

Time Temperature Precipitation Wind Pressure Humidity
00:00 +24°C° 0 mm 2 mps 756 mmHg 87%
01:00 +24°C° 0 mm 2 mps 756 mmHg 87%
02:00 +23°C° 0 mm 2 mps 756 mmHg 87%
03:00 +22°C° 0 mm 3 mps 755 mmHg 88%
04:00 +22°C° 0 mm 3 mps 755 mmHg 88%
05:00 +22°C° 0 mm 3 mps 755 mmHg 89%
06:00 +24°C° 0.1 mm 3 mps 755 mmHg 84%
07:00 +26°C° 0.1 mm 4 mps 755 mmHg 78%
08:00 +28°C° 0.1 mm 4 mps 755 mmHg 73%
09:00 +29°C° 0 mm 4 mps 755 mmHg 68%
10:00 +32°C° 0 mm 5 mps 754 mmHg 62%
11:00 +33°C° 0 mm 5 mps 754 mmHg 57%
12:00 +33°C° 0.1 mm 5 mps 754 mmHg 56%
13:00 +34°C° 0.1 mm 6 mps 754 mmHg 55%
14:00 +34°C° 0.1 mm 6 mps 753 mmHg 55%
15:00 +33°C° 0 mm 5 mps 753 mmHg 57%
16:00 +33°C° 0 mm 5 mps 752 mmHg 59%
17:00 +32°C° 0 mm 5 mps 752 mmHg 62%
18:00 +29°C° 0 mm 3 mps 752 mmHg 71%
19:00 +28°C° 0 mm 2 mps 752 mmHg 80%
20:00 +26°C° 0 mm 1 mps 752 mmHg 89%
21:00 +25°C° 0 mm 1 mps 752 mmHg 89%
22:00 +25°C° 0 mm 1 mps 752 mmHg 89%
23:00 +24°C° 0 mm 1 mps 752 mmHg 90%

Tomorrow, 7 July, Tuesday

Time Temperature Precipitation Wind Pressure Humidity
00:00 +24°C° 0 mm 1 mps 752 mmHg 89%
01:00 +24°C° 0 mm 1 mps 752 mmHg 88%
02:00 +24°C° 0 mm 1 mps 752 mmHg 88%
03:00 +23°C° 0 mm 1 mps 751 mmHg 88%
04:00 +23°C° 0 mm 2 mps 751 mmHg 88%
05:00 +23°C° 0 mm 2 mps 751 mmHg 88%
06:00 +25°C° 0 mm 2 mps 751 mmHg 81%
07:00 +27°C° 0 mm 2 mps 752 mmHg 74%
08:00 +28°C° 0 mm 2 mps 752 mmHg 67%
09:00 +30°C° 0 mm 2 mps 752 mmHg 62%
10:00 +31°C° 0 mm 3 mps 752 mmHg 57%
11:00 +34°C° 0 mm 3 mps 752 mmHg 52%
12:00 +34°C° 0.1 mm 4 mps 752 mmHg 51%
13:00 +34°C° 0.1 mm 4 mps 753 mmHg 50%
14:00 +35°C° 0.1 mm 4 mps 753 mmHg 50%
15:00 +33°C° 0 mm 5 mps 753 mmHg 53%
16:00 +32°C° 0 mm 6 mps 753 mmHg 56%
17:00 +30°C° 0 mm 7 mps 753 mmHg 60%
18:00 +28°C° 0 mm 8 mps 754 mmHg 61%
19:00 +27°C° 0 mm 8 mps 754 mmHg 61%
20:00 +24°C° 0 mm 8 mps 755 mmHg 62%
21:00 +23°C° 0 mm 7 mps 756 mmHg 66%
22:00 +21°C° 0 mm 6 mps 757 mmHg 70%
23:00 +20°C° 0 mm 6 mps 757 mmHg 75%

Day after tomorrow, 8 July, Wednesday

Time Temperature Precipitation Wind Pressure Humidity
00:00 +19°C° 0 mm 6 mps 758 mmHg 77%
01:00 +17°C° 0 mm 5 mps 758 mmHg 79%
02:00 +17°C° 0 mm 5 mps 759 mmHg 82%
03:00 +16°C° 0 mm 5 mps 759 mmHg 81%
04:00 +16°C° 0 mm 5 mps 759 mmHg 79%
05:00 +16°C° 0 mm 5 mps 760 mmHg 78%
06:00 +17°C° 0 mm 5 mps 760 mmHg 71%
07:00 +19°C° 0 mm 6 mps 761 mmHg 65%
08:00 +20°C° 0 mm 6 mps 761 mmHg 59%
09:00 +21°C° 0 mm 6 mps 761 mmHg 56%
10:00 +23°C° 0 mm 6 mps 761 mmHg 52%
11:00 +24°C° 0 mm 6 mps 762 mmHg 49%
12:00 +26°C° 0 mm 6 mps 762 mmHg 47%
13:00 +27°C° 0 mm 5 mps 762 mmHg 46%
14:00 +27°C° 0 mm 5 mps 761 mmHg 44%
15:00 +27°C° 0 mm 5 mps 761 mmHg 46%
16:00 +27°C° 0 mm 5 mps 761 mmHg 47%
17:00 +27°C° 0 mm 5 mps 761 mmHg 48%
18:00 +25°C° 0 mm 4 mps 761 mmHg 54%
19:00 +22°C° 0 mm 3 mps 762 mmHg 59%
20:00 +20°C° 0 mm 3 mps 762 mmHg 65%
21:00 +20°C° 0 mm 2 mps 762 mmHg 65%
22:00 +19°C° 0 mm 2 mps 762 mmHg 66%
23:00 +18°C° 0 mm 2 mps 762 mmHg 67%

9 July, Thursday

Time Temperature Precipitation Wind Pressure Humidity
00:00 +18°C° 0 mm 2 mps 763 mmHg 68%
01:00 +18°C° 0 mm 2 mps 763 mmHg 69%
02:00 +17°C° 0 mm 2 mps 763 mmHg 71%
03:00 +17°C° 0 mm 2 mps 763 mmHg 71%
04:00 +17°C° 0 mm 2 mps 763 mmHg 72%
05:00 +17°C° 0 mm 2 mps 763 mmHg 72%
06:00 +20°C° 0 mm 1 mps 763 mmHg 66%
07:00 +22°C° 0 mm 1 mps 763 mmHg 59%
08:00 +25°C° 0 mm 1 mps 763 mmHg 52%
09:00 +26°C° 0 mm 2 mps 763 mmHg 48%
10:00 +27°C° 0 mm 3 mps 763 mmHg 44%
11:00 +28°C° 0 mm 3 mps 763 mmHg 40%
12:00 +29°C° 0 mm 4 mps 763 mmHg 39%
13:00 +29°C° 0 mm 4 mps 763 mmHg 39%
14:00 +30°C° 0 mm 4 mps 763 mmHg 38%
15:00 +29°C° 0 mm 4 mps 763 mmHg 41%
16:00 +29°C° 0 mm 4 mps 763 mmHg 45%
17:00 +28°C° 0 mm 4 mps 763 mmHg 48%
18:00 +26°C° 0 mm 4 mps 763 mmHg 56%
19:00 +24°C° 0 mm 3 mps 763 mmHg 64%
20:00 +21°C° 0 mm 3 mps 763 mmHg 72%
21:00 +21°C° 0 mm 2 mps 763 mmHg 75%
22:00 +20°C° 0 mm 2 mps 763 mmHg 78%
23:00 +20°C° 0 mm 2 mps 763 mmHg 81%

10 July, Friday

Time Temperature Precipitation Wind Pressure Humidity
00:00 +19°C° 0 mm 2 mps 763 mmHg 81%
01:00 +19°C° 0 mm 2 mps 763 mmHg 82%
02:00 +19°C° 0 mm 2 mps 763 mmHg 83%
03:00 +19°C° 0 mm 2 mps 763 mmHg 83%
04:00 +19°C° 0 mm 3 mps 763 mmHg 83%
05:00 +18°C° 0 mm 3 mps 763 mmHg 83%
06:00 +21°C° 0 mm 4 mps 763 mmHg 75%
07:00 +23°C° 0 mm 5 mps 763 mmHg 67%
08:00 +26°C° 0 mm 6 mps 763 mmHg 58%
09:00 +27°C° 0 mm 6 mps 763 mmHg 55%
10:00 +28°C° 0 mm 6 mps 763 mmHg 52%
11:00 +29°C° 0 mm 6 mps 763 mmHg 49%
12:00 +29°C° 0 mm 7 mps 763 mmHg 50%
13:00 +29°C° 0 mm 7 mps 762 mmHg 50%
14:00 +30°C° 0 mm 7 mps 762 mmHg 50%
15:00 +29°C° 0 mm 7 mps 762 mmHg 51%
16:00 +29°C° 0 mm 7 mps 762 mmHg 53%
17:00 +28°C° 0 mm 7 mps 762 mmHg 55%
18:00 +27°C° 0 mm 6 mps 762 mmHg 61%
19:00 +25°C° 0 mm 5 mps 762 mmHg 68%
20:00 +23°C° 0 mm 5 mps 762 mmHg 75%
21:00 +22°C° 0 mm 4 mps 762 mmHg 78%
22:00 +22°C° 0 mm 4 mps 762 mmHg 81%
23:00 +21°C° 0 mm 4 mps 762 mmHg 84%

11 July, Saturday

Time Temperature Precipitation Wind Pressure Humidity
00:00 +21°C° 0 mm 4 mps 762 mmHg 86%
01:00 +20°C° 0 mm 4 mps 762 mmHg 87%
02:00 +20°C° 0 mm 3 mps 761 mmHg 89%
03:00 +20°C° 0 mm 3 mps 761 mmHg 89%
04:00 +20°C° 0 mm 3 mps 761 mmHg 90%
05:00 +19°C° 0 mm 3 mps 761 mmHg 91%
06:00 +21°C° 0.1 mm 4 mps 761 mmHg 84%
07:00 +23°C° 0.1 mm 4 mps 761 mmHg 78%
08:00 +26°C° 0.1 mm 5 mps 761 mmHg 72%
09:00 +27°C° 0.1 mm 5 mps 761 mmHg 66%
10:00 +28°C° 0.1 mm 6 mps 761 mmHg 60%
11:00 +29°C° 0.1 mm 6 mps 760 mmHg 55%
12:00 +30°C° 0 mm 6 mps 760 mmHg 53%
13:00 +30°C° 0 mm 6 mps 760 mmHg 51%
14:00 +30°C° 0 mm 6 mps 760 mmHg 50%
15:00 +30°C° 0 mm 6 mps 759 mmHg 51%
16:00 +29°C° 0 mm 6 mps 759 mmHg 53%
17:00 +28°C° 0 mm 5 mps 759 mmHg 54%
18:00 +27°C° 0 mm 5 mps 759 mmHg 63%
19:00 +25°C° 0 mm 4 mps 759 mmHg 73%
20:00 +22°C° 0 mm 4 mps 759 mmHg 82%
21:00 +22°C° 0 mm 3 mps 759 mmHg 84%
22:00 +21°C° 0 mm 3 mps 760 mmHg 86%
23:00 +21°C° 0 mm 2 mps 760 mmHg 88%
Show more